Weather History for Hulett, WY

Change the Weather History Date:

Friday, November 1, 2013

  Actual Average (KEFC) Record (KEFC)
Temperature  
Mean Temperature 39 °F -  
Max Temperature 46 °F 53 °F 79 °F (1978)
Min Temperature 32 °F 26 °F 6 °F (1972)
Degree Days  
Heating Degree Days 26    
Moisture  
Dew Point 27 °F    
Average Humidity 63    
Maximum Humidity 93    
Minimum Humidity 37    
Precipitation  
Precipitation 0.00 in - - ()
Sea Level Pressure  
Sea Level Pressure 30.06 in    
Wind  
Wind Speed 10 mph (West)    
Max Wind Speed 23 mph    
Max Gust Speed 34 mph    
Visibility 10 miles    
Events Rain    
Averages and records for this station are not official NWS values.
T = Trace of Precipitation, MM = Missing Value Source: NWS Daily Summary

Daily Weather History Graph

Daily Weather History Graph

Search for Another Location

Airport:

Trip Planner

Search our weather history database for the weather conditions in past years. The results will help you decide how hot, cold, wet, or windy it might be!

Date:

Astronomy

Nov. 01, 2013 Rise Set
Actual Time 7:36 AM MDT 5:46 PM MDT
Civil Twilight 7:05 AM MDT 6:17 PM MDT
Nautical Twilight 6:31 AM MDT 6:51 PM MDT
Astronomical Twilight 5:57 AM MDT 7:25 PM MDT
Moon 5:27 AM MDT (11/1) 4:44 PM MDT (11/1)
Length of Visible Light 11h 11m
Length of Day
10h 10m
Waning Crescent, 4% of the Moon is Illuminated
Nov 1
Waning Crescent
Nov 3
New
Nov 9
First Quarter
Nov 17
Full
Nov 25
Last Quarter

Hourly Weather History & Observations

Time (MDT) Temp. Windchill Dew Point Humidity Pressure Visibility Wind Dir Wind Speed Gust Speed Precip Events Conditions
12:15 AM 41.0 °F 36.4 °F 33.8 °F 76% 29.84 in 10.0 mi NW 6.9 mph 18.4 mph N/A   Overcast
4:15 AM 37.4 °F 27.8 °F 33.8 °F 87% 29.93 in 5.0 mi WNW 17.3 mph 21.9 mph N/A Rain Rain
4:35 AM 35.6 °F 29.9 °F 33.8 °F 93% 29.92 in 10.0 mi West 6.9 mph - N/A   Drizzle
4:55 AM 37.4 °F 30.8 °F 33.8 °F 87% 29.93 in 10.0 mi West 9.2 mph - N/A   Overcast
5:15 AM 37.4 °F 32.8 °F 33.8 °F 87% 29.93 in 10.0 mi WNW 5.8 mph - N/A   Mostly Cloudy
5:35 AM 37.4 °F 32.8 °F 32.0 °F 81% 29.94 in 10.0 mi West 5.8 mph - N/A   Mostly Cloudy
5:55 AM 37.4 °F 32.1 °F 32.0 °F 81% 29.95 in 10.0 mi WNW 6.9 mph 18.4 mph N/A   Scattered Clouds
6:15 AM 37.4 °F 31.4 °F 32.0 °F 81% 29.96 in 10.0 mi WNW 8.1 mph - N/A   Scattered Clouds
6:35 AM 37.4 °F 31.4 °F 32.0 °F 81% 29.96 in 10.0 mi WNW 8.1 mph 16.1 mph N/A   Scattered Clouds
6:55 AM 35.6 °F 28.6 °F 32.0 °F 87% 29.97 in 10.0 mi West 9.2 mph - N/A   Scattered Clouds
7:15 AM 37.4 °F 30.8 °F 32.0 °F 81% 29.97 in 10.0 mi West 9.2 mph 16.1 mph N/A   Mostly Cloudy
7:35 AM 37.4 °F 29.3 °F 30.2 °F 75% 29.97 in 10.0 mi WNW 12.7 mph 20.7 mph N/A   Overcast
7:55 AM 37.4 °F 28.9 °F 30.2 °F 75% 29.99 in 10.0 mi West 13.8 mph 21.9 mph N/A   Mostly Cloudy
8:15 AM 37.4 °F 29.3 °F 30.2 °F 75% 30.00 in 10.0 mi West 12.7 mph 20.7 mph N/A   Mostly Cloudy
8:35 AM 37.4 °F 29.8 °F 30.2 °F 75% 30.01 in 10.0 mi West 11.5 mph 19.6 mph N/A   Scattered Clouds
8:55 AM 37.4 °F 29.8 °F 30.2 °F 75% 30.02 in 10.0 mi West 11.5 mph 16.1 mph N/A   Scattered Clouds
9:15 AM 39.2 °F 31.2 °F 32.0 °F 75% 30.03 in 10.0 mi West 13.8 mph 23.0 mph N/A   Scattered Clouds
9:35 AM 39.2 °F 32.0 °F 30.2 °F 70% 30.03 in 10.0 mi West 11.5 mph 20.7 mph N/A   Scattered Clouds
9:55 AM 41.0 °F 32.8 °F 30.2 °F 65% 30.04 in 10.0 mi WNW 16.1 mph 26.5 mph N/A   Clear
10:15 AM 41.0 °F 33.5 °F 28.4 °F 61% 30.04 in 10.0 mi NW 13.8 mph 27.6 mph N/A   Scattered Clouds
10:35 AM 41.0 °F 34.3 °F 28.4 °F 61% 30.05 in 10.0 mi NW 11.5 mph 28.8 mph N/A   Mostly Cloudy
10:55 AM 42.8 °F 34.0 °F 26.6 °F 53% 30.06 in 10.0 mi WNW 20.7 mph 32.2 mph N/A   Scattered Clouds
11:15 AM 42.8 °F 35.1 °F 26.6 °F 53% 30.07 in 10.0 mi NW 16.1 mph 29.9 mph N/A   Scattered Clouds
11:35 AM 42.8 °F 34.0 °F 26.6 °F 53% 30.07 in 10.0 mi NNW 20.7 mph 28.8 mph N/A   Scattered Clouds
11:55 AM 42.8 °F 35.1 °F 26.6 °F 53% 30.08 in 10.0 mi NNW 16.1 mph 27.6 mph N/A   Scattered Clouds
12:15 PM 44.6 °F 36.4 °F 24.8 °F 46% 30.08 in 10.0 mi NW 20.7 mph 33.4 mph N/A   Scattered Clouds
12:35 PM 44.6 °F 37.8 °F 26.6 °F 49% 30.08 in 10.0 mi NW 15.0 mph 34.5 mph N/A   Scattered Clouds
12:55 PM 44.6 °F 36.9 °F 26.6 °F 49% 30.08 in 10.0 mi NW 18.4 mph 27.6 mph N/A   Scattered Clouds
1:15 PM 44.6 °F 35.9 °F 24.8 °F 46% 30.08 in 10.0 mi NNW 23.0 mph 33.4 mph N/A   Scattered Clouds
1:35 PM 44.6 °F 36.6 °F 23.0 °F 43% 30.08 in 10.0 mi NNW 19.6 mph 29.9 mph N/A   Scattered Clouds
1:55 PM 44.6 °F 36.1 °F 23.0 °F 43% 30.08 in 10.0 mi NNW 21.9 mph 27.6 mph N/A   Scattered Clouds
2:15 PM 44.6 °F 36.9 °F 23.0 °F 43% 30.08 in 10.0 mi NW 18.4 mph 26.5 mph N/A   Scattered Clouds
3:55 PM 46.4 °F 41.5 °F 21.2 °F 37% 30.09 in 10.0 mi NW 10.4 mph 28.8 mph N/A   Overcast
4:15 PM 46.4 °F 42.4 °F 23.0 °F 40% 30.10 in 10.0 mi WNW 8.1 mph 21.9 mph N/A   Mostly Cloudy
4:35 PM 46.4 °F 42.4 °F 21.2 °F 37% 30.10 in 10.0 mi WNW 8.1 mph 19.6 mph N/A   Mostly Cloudy
4:55 PM 44.6 °F 41.4 °F 21.2 °F 39% 30.11 in 10.0 mi WNW 5.8 mph 17.3 mph N/A   Scattered Clouds
5:15 PM 42.8 °F 41.1 °F 21.2 °F 42% 30.12 in 10.0 mi WNW 3.5 mph - N/A   Scattered Clouds
5:35 PM 42.8 °F 41.1 °F 21.2 °F 42% 30.12 in 10.0 mi NW 3.5 mph - N/A   Scattered Clouds
5:55 PM 41.0 °F - 21.2 °F 45% 30.11 in 10.0 mi Calm Calm - N/A   Scattered Clouds
6:15 PM 41.0 °F 38.0 °F 21.2 °F 45% 30.12 in 10.0 mi West 4.6 mph - N/A   Scattered Clouds
6:35 PM 39.2 °F - 21.2 °F 49% 30.12 in 10.0 mi Calm Calm - N/A   Clear
6:55 PM 37.4 °F 34.9 °F 23.0 °F 56% 30.12 in 10.0 mi WSW 3.5 mph - N/A   Clear
7:15 PM 35.6 °F 31.7 °F 23.0 °F 60% 30.13 in 10.0 mi SW 4.6 mph - N/A   Clear
7:35 PM 35.6 °F 31.7 °F 23.0 °F 60% 30.12 in 10.0 mi SSW 4.6 mph - N/A   Clear
7:55 PM 33.8 °F 27.7 °F 23.0 °F 65% 30.12 in 10.0 mi South 6.9 mph - N/A   Scattered Clouds
8:15 PM 33.8 °F 27.0 °F 24.8 °F 70% 30.12 in 10.0 mi South 8.1 mph - N/A   Mostly Cloudy
8:35 PM 32.0 °F 25.6 °F 24.8 °F 75% 30.12 in 10.0 mi SSW 6.9 mph - N/A   Overcast
8:55 PM 33.8 °F 26.4 °F 26.6 °F 75% 30.13 in 10.0 mi South 9.2 mph - N/A   Overcast
9:15 PM 33.8 °F 26.4 °F 24.8 °F 70% 30.12 in 10.0 mi SSW 9.2 mph - N/A   Mostly Cloudy
9:35 PM 32.0 °F 24.8 °F 24.8 °F 75% 30.12 in 10.0 mi SSW 8.1 mph - N/A   Clear
9:55 PM 33.8 °F 26.4 °F 24.8 °F 70% 30.12 in 10.0 mi SSW 9.2 mph - N/A   Clear
10:15 PM 33.8 °F 26.4 °F 23.0 °F 65% 30.13 in 10.0 mi SSW 9.2 mph - N/A   Clear
10:35 PM 33.8 °F 26.4 °F 23.0 °F 65% 30.13 in 10.0 mi SSW 9.2 mph - N/A   Clear
10:55 PM 35.6 °F 29.2 °F 23.0 °F 60% 30.13 in 10.0 mi SW 8.1 mph - N/A   Clear
11:15 PM 35.6 °F 28.6 °F 23.0 °F 60% 30.13 in 10.0 mi SW 9.2 mph - N/A   Clear
11:35 PM 33.8 °F 26.4 °F 24.8 °F 70% 30.13 in 10.0 mi SSW 9.2 mph - N/A   Clear
11:55 PM 32.0 °F 24.2 °F 24.8 °F 75% 30.13 in 10.0 mi SSW 9.2 mph - N/A   Clear